Regional Weather Roundup
Issued by NWS

Home | Current Version | Previous Version | Graphics & Text | Print | Product List | Glossary On
Versions: 1 2 3 4 5 6 7 8 9 10 11 12 13 14 15 16 17 18 19 20 21 22 23 24 25 26 27 28 29 30 31 32 33 34 35 36 37 38 39 40 41 42 43 44 45 46 47 48 49 50
000
ASUS43 KIND 230809
RWRIN

WEATHER ROUNDUP FOR INDIANA
NATIONAL WEATHER SERVICE INDIANAPOLIS IN
400 AM EDT SAT JUL 23 2016

NOTE: "FAIR" INDICATES FEW OR NO CLOUDS BELOW 12,000 FEET WITH NO
SIGNIFICANT WEATHER AND/OR OBSTRUCTIONS TO VISIBILITY.

* - STATION DOES NOT REPORT WEATHER SUCH AS PRECIPITATION OR FOG.

+ - STATION NOT QUALITY CONTROLLED BY THE NATIONAL WEATHER SERVICE.
    USE DATA WITH CAUTION...ESPECIALLY DEWPOINT AND RELATIVE
    HUMIDITY OBSERVATIONS.

INZ001>003-010>013-019-020-230900-
NORTHWEST INDIANA

CITY           SKY/WX    TMP DP  RH WIND       PRES   REMARKS
GARY /AIRPORT/ CLEAR     79  79 100 CALM      29.99F
KNOX *+        CLEAR     70  70 100 CALM      30.01R
LA PORTE +     CLEAR    N/A N/A N/A CALM      30.01S HAZE
MICHIGAN CITY+ CLEAR     72  72 100 S3        30.00S FOG
MONTICELLO +   CLEAR     70  66  88 CALM      30.00S
RENSSELAER +   CLEAR     72  72 100 W3        30.01S
VALPARAISO     PTCLDY    76  73  91 SW3       30.01S

$$

LMZ046-743>745-230900-
SOUTHERN LAKE MICHIGAN

STATION/POSITION TIME  TEMP    WIND        PRES    WAVE
                       AIR SEA DIR/SP/G            HT
                 (UTC) (F)     (DEG/KT/KT) (MB)    (FT)
BURNS HARBOR     0700   79     220/  7/ 15 1015.9S
MICHIGAN CITY    0700   78     180/  7/  7   N/A
5NW MICH CITY    0800   76 74  220/  4/  6   N/A     1

$$

INZ004-005-014>016-021>024-230900-
NORTH CENTRAL INDIANA

CITY           SKY/WX    TMP DP  RH WIND       PRES   REMARKS
GOSHEN         FOG       70  67  90 CALM      30.01S VSB 1
LOGANSPORT +   CLEAR     70  70 100 CALM      30.02S
PERU/GRISSOM   CLEAR     71  71 100 SW5       30.00S
ROCHESTER +    CLEAR     77  75  94 W5        30.02R
SOUTH BEND     CLEAR     73  72  96 S3        30.01S
WARSAW +       CLEAR     72  72 100 W3        30.02R

$$

INZ006>009-017-018-025>027-230900-
NORTHEAST INDIANA

CITY           SKY/WX    TMP DP  RH WIND       PRES   REMARKS
ANGOLA *+        N/A     70  61  73 CALM      30.01S
AUBURN +       CLEAR     72  68  88 CALM      30.01S
FORT WAYNE     PTCLDY    72  69  90 CALM      30.00F
HUNTINGTON +   CLEAR    N/A N/A N/A CALM      30.00F

$$

INZ028-029-035-036-043>045-051>053-230900-
WEST CENTRAL INDIANA

CITY           SKY/WX    TMP DP  RH WIND       PRES   REMARKS
CRAWFORDSVL +  CLEAR     68  68 100 CALM      30.02S FOG
GREENCASTLE +  CLEAR     70  70 100 CALM      30.03S
LAFAYETTE      FOG       71  71 100 CALM      30.00S VSB 1/4
TERRE HAUTE    FOG       72  70  93 CALM      30.01S VSB 1/2

$$

INZ030>032-037>040-046>048-054>057-064-065-230900-
CENTRAL INDIANA

CITY           SKY/WX    TMP DP  RH WIND       PRES   REMARKS
FISHERS *+     CLEAR     70  70 100 CALM      30.03
FRANKFORT +    MOCLDY   N/A N/A N/A CALM      30.04S HAZE
INDIANAPOLIS   PTCLDY    74  71  91 CALM      30.02S
-EAGLE CREEK   CLEAR     74  71  91 S3        30.02R
KOKOMO *+      CLEAR     70  66  88 S3        30.02S
MARION +       CLEAR     69  68  99 CALM      30.02F FOG
MT COMFORT *+    N/A     68  68 100 CALM      30.03S VSB 1
SHELBYVILLE    CLEAR     73  69  87 CALM      30.02S
ZIONSVILLE +   PTCLDY    69  68  98 CALM      30.03F

$$

INZ033-034-041-042-049-050-058-059-230900-
EAST CENTRAL INDIANA

CITY           SKY/WX    TMP DP  RH WIND       PRES   REMARKS
MUNCIE         CLEAR     74  70  87 CALM      30.03R

$$

INZ060-061-067>069-081>083-085>088-230900-
SOUTHWEST INDIANA

CITY           SKY/WX    TMP DP  RH WIND       PRES   REMARKS
EVANSVILLE     CLEAR     75  73  93 CALM      30.00S FOG
HUNTINGBURG *+ CLEAR     72  70  94 CALM      30.00S
WASHINGTON +   FOG       72  72 100 MISG      29.99F VSB 1/4

$$

INZ062-063-066-070>080-084-089>092-230900-
SOUTH CENTRAL AND SOUTHEAST INDIANA

CITY           SKY/WX    TMP DP  RH WIND       PRES   REMARKS
BLOOMINGTON    CLEAR     72  69  90 CALM      30.02S FOG
MADISON *+     MOCLDY    72  72 100 CALM      30.04F VSB<1/4
NORTH VERNON + MOCLDY   N/A N/A N/A CALM      30.03S
SEYMOUR +      FOG       73  73 100 CALM      30.01F VSB 1/4

$$





USA.gov is the U.S. government's official web portal to all federal, state and local government web resources and services.